Showing default

YAOGAN-30 W, 46809

Orbit data source: Space-Track

YAOGAN-30 W, 46809 is a payload satellite owned by PLA SSF (CN) in LEO that was launched on Mon, 26 Oct 2020 UTC via a CHANG ZHENG 2C launch vehicle from the Xichang Space Center, China (XSC). Payload-class satellites include a variety of spacecraft equipped with specific instruments for various scientific and technological missions. These include communications satellites like Starlink; space stations such as the ISS; scientific satellites like the Hubble; Earth observation satellites from companies like Planet Labs, Umbra, and HawkEye 360; GPS; miniature CubeSats for education and research; and military/defense satellites.

Loading next visibility...
Identifier
46809, 2020-076C
Orbit
LEO
Country
Flag of CNCN / PRC
Related business
Manufacturer
SECM
Mission
Operational Defense Sigint
Bus & Motor
Unknown
Mass
~500 kg wet, ~500 kg dry
Launch date (UTC)
2020-10-26 (6 years ago)
Launch vehicle
CHANG ZHENG 2C
Launch site
Xichang Space Center, China (XSC)
Object type
Payload
Rocket body
Debris
Shape & HBR
Box + 2 Pan, 0.5 m
Radar Cross Section
0.446 m², Large (>1 m²)

Expand to show TLE details & history
Last TLE update: 14 hours ago

TLE from 14 hours ago
0 YAOGAN-30 W
1 46809U 20076C   26129.99787435  .00002317  00000-0  17312-3 0  9994
2 46809  34.9971 323.6034 0005371  92.9044 267.2279 15.02505126302396
Epoch: 2026-05-09T23:56Z
TLE epoch observation values (Epoch: 2026-05-09T23:56:56.343Z)
Latitude
-0.00002°
Longitude
96.56133°
Altitude
558.273 km
Speed
7.585 km/s
True Right ascension
21h 34m 24s
True Declination
0° 00' 00"
Sunlit
Object was in daylight at epoch
Visualization orbit readout
Latitude
Unknown
Longitude
Unknown
Altitude
Unknown
Speed
Unknown
Apparent Right ascension
Unknown
Apparent Declination
Unknown
Sunlit
N/A
Visualization observer readout
Local Sidereal Time
22:08:30
Azimuth
Unknown
Elevation
Unknown
Doppler factor
Unknown
Orbital elements
Apogee altitude
566.124 km
Perigee altitude
558.668 km
Semi-major axis
6,940.533 km
Eccentricity
0.00054
Inclination
34.9971°
RAAN
323.6034°
Arg. of periapsis
92.9044°
True anomaly
267.16643°
Mean anomaly
267.2279°
Eccentric anomaly
267.19716°
Mean motion
3.75365 °/min
Orbital period
95.91 mins
BSTAR
0.00017312
Loading maneuver chart data...
Computing Atmospheric mass density...
Loading historical data...
Loading historical data...
Loading historical data...
Loading historical data...
Loading historical data...
Loading historical data...
Loading historical data...
Other satellites on launch #76 in the year 2020 (2020-10-26 UTC)

Documentation

Showing up to 5 results
|